Torna al catalogo

FENGYUN 1C DEB

LostSSO
NORAD 31318·DEBRIS·🇨🇳 China

Lanciato May 10, 1999 da Taiyuan Satellite Launch Center

Loading…

Prossimi Passaggi (prossime 24 ore)

TLE

ObsoletoSource: Space-Track

Epoca: Nov 4, 2009, 01:31 UTC

1 31318U 99025BPW 09308.06340418 -.00000046  00000-0  00000-0 0  9998
2 31318  99.0189 326.0718 0105784 151.2041 209.5640 14.24254391133895

Traccia FENGYUN 1C DEB in tempo reale con AllMySat

Download on the App Store